Location: Balmoral
(33.0667°S, 151.5833°E)
Time: 01:15:56
(UTC+00:00)

Cosmos 2237 Rocket - Pass Details

Date: 18 September 2020
Orbit: 836 x 848 km, 71.0° (Epoch: 21 October)

Event Time Altitude Azimuth Distance (km) Brightness Sun altitude
Rises 18:31:45 0° 195° (SSW) 3,442 5.3 -16.6°
Reaches altitude 10° 18:34:19 10° 189° (S) 2,500 4.7 -16.1°
Maximum altitude 18:39:53 50° 114° (ESE) 1,081 3.2 -14.9°
Drops below altitude 10° 18:45:23 10° 39° (NE) 2,469 5.1 -13.8°
Sets 18:47:53 0° 33° (NNE) 3,395 5.7 -13.3°
